Regional Weather Roundup
Issued by NWS Lake Charles, LA

Home | Current Version | Previous Version | Text Only | Print | Product List | Glossary On
Versions: 1 2 3 4 5 6 7 8 9 10 11 12 13 14 15 16 17 18 19 20 21 22 23 24 25 26 27 28 29
000
ASUS44 KLCH 180810
RWRLCH
RWRLCH
REGIONAL WEATHER ROUNDUP
NATIONAL WEATHER SERVICE LAKE CHARLES LA
300 AM CDT FRI APR 18 2014

Note: "fair" indicates few or no clouds below 12,000 feet with no
significant weather and/or obstructions to visibility.


ACROSS SOUTHEAST TEXAS

CITY           SKY/WX    TMP DP  RH WIND       PRES   REMARKS
BEAUMONT       MOCLDY    57  53  86 N8        30.12F
BEAUMONT CITY    N/A     55  53  92 NE6       30.13F
ORANGE         MOSUNNY   55  54  97 N3        30.14F
JASPER         PTCLDY    50  49  96 CALM      30.16F
$$

ACROSS CENTRAL LOUISIANA

CITY           SKY/WX    TMP DP  RH WIND       PRES   REMARKS
LEESVILLE      CLEAR     54  51  90 NE7       30.12F
FULLERTON        N/A     54  51  90 CALM      30.11F
ALEXANDRIA INT CLOUDY    56  54  93 CALM      30.12F
ESLER FIELD    MOCLDY    56  54  93 CALM      30.13F
DERIDDER       PTSUNNY   53  50  92 N5        30.14F
OAKDALE        CLOUDY    56  54  94 CALM      30.13F
OPELOUSAS      CLOUDY    60  56  88 NE5       30.11F
$$

ACROSS SOUTHWEST AND SOUTH CENTRAL LOUISIANA

CITY           SKY/WX    TMP DP  RH WIND       PRES   REMARKS
SULPHUR        PTSUNNY   57  55  94 N3        30.12F
LAKE CHARLES   MOCLDY    56  54  93 N3        30.11F
CHENNAULT INT  PTCLDY    56  53  91 N5        30.12F
CAMERON PHI      N/A     57  55  94 N5        30.12F
DEQUINCY         N/A     53  50  92 CALM      30.13F
JENNINGS       CLOUDY    58  57  95 CALM      30.11F
LAFAYETTE      CLOUDY    61  59  93 N6        30.11F FOG
NEW IBERIA     CLOUDY    61  59  93 N5        30.11F FOG
ABBEVILLE      CLOUDY   N/A N/A N/A N5        30.11F FOG
PATTERSON      CLOUDY    63  59  88 NE6         N/A
SALT POINT       N/A     65  61  87 CALM      30.07F
$$

SELECTED SITES ACROSS THE REGION

CITY           SKY/WX    TMP DP  RH WIND       PRES   REMARKS
HOUSTON BUSH   CLOUDY    63  54  72 N5        30.12F
HOUSTON HOBBY  MOCLDY    61  54  77 NE6       30.11F
GALVESTON      CLOUDY    61  57  87 NE12      30.11F
COLLEGE STAT   CLOUDY    60  59  96 W6        30.15F FOG
CONROE         CLOUDY    57  55  93 CALM      30.14F
HUNTSVILLE     CLOUDY    58  54  86 CALM      30.14F
LUFKIN         CLOUDY    59  52  77 N3        30.15F
SHREVEPORT     CLOUDY    56  51  84 CALM      30.15F
MONROE         MOCLDY    54  52  93 CALM      30.16F
NATCHEZ MS     PTCLDY    52  48  87 N3        30.13F
BATON ROUGE    CLOUDY    62  55  77 N5        30.11F
N.O. INTL ARPT CLOUDY    63  59  87 E10       30.05F
SLIDELL        CLOUDY    62  58  86 VRB6      30.06F
$$

MARINE REPORTS

STATION/POSITION TIME  TEMP    WIND        PRES    VSBY  WAVE
                       AIR SEA DIR/SP/G                  HT/PER
                 (UTC) (F)     (DEG/KT/KT) (MB)    (MI)  (FT/S)
BUOY 30 S HIGH I 0800   63 65   50/ 14/ 17 1018.8F         3/ 6
SEA RIM ST PARK  0800   57      30/  8/ 10 1020.0F
PORT ARTHUR      0800      65   40/  2/  5 1019.9F
SABINE PASS N    0800   57 63   30/  7/ 10 1019.7F
TEXAS POINT      0800   56 64   10/  9/ 10 1019.9F
CALCASIEU PASS   0800   59 63   40/  5/  7 1020.5F
LK CHARLES BEACH 0800   57 65              1020.6F
MARSH ISLAND     0700   62      40/  7/  9   N/A
FRESH WATER LOCK 0800   61 62  350/  7/  9 1018.8F
AMERADA PASS     0800   62 60   30/  2/  3 1018.2F
$$



USA.gov is the U.S. government's official web portal to all federal, state and local government web resources and services.